Starlink 36171

operational
NORAD ID: 67027 Int'l Des: 2025-293 Owner: SPXS Country: US Constellation: starlink
LEOCIRCULAR

关于 Starlink 36171

正在加载描述...

实时位置

正在加载3D地球...

即将过境

高度历史

Altitude vs Time

uPlot chart will show altitude changes over time

两行轨道根数

1 67027C 25293AA 25346.09979167 .00077826 00000+0 10394-3 0 3466
2 67027 69.9969 325.9379 0005157 264.8909 179.1693 16.06265356 13
Epoch: Dec 12, 2025 • Age: 59 hours

当前状态

高度 259.0 km
速度 7.75 km/s
星下点 7.27°N, 75.24°E
发射日期 Dec 10, 2025
运行时间 3 days
类型 internet

技术详情

分类 Payload
质量 575.00 kg
干质量 530.00 kg
总质量 575.00 kg
长度 0.30 m
直径 4.10 m
跨度 29.00 m
形状 Box + pan
制造商 SPXS
平台类型 Starlink V2MO
阶段状态 In Orbit
所有者/国家 SPXS/US

大型星座

Loading constellations...